FW0954 Weather Reports


time (UTC)temp
C
wind
direction
speed
KPH
gust
KPH
rain 1hr
cm
rain 24hr
cm
rain mn
cm
humidity
%
barometer
mb
20260902032001 30 0 0.0 0.0 0.00 0.00 0.00 69 1014.4
20260902031501 30 0 0.0 0.0 0.00 0.00 0.00 68 1014.3
20260902031001 30 0 0.0 0.0 0.00 0.00 0.00 66 1014.3
20260902030501 31 0 0.0 0.0 0.00 0.00 0.00 65 1014.2
20260902030002 31 0 0.0 0.0 0.00 0.00 0.00 65 1014.2
20260902025501 31 0 0.0 0.0 0.00 0.00 0.00 64 1014.1
20260902025001 31 0 0.0 0.0 0.00 0.00 0.00 63 1014.0
20260902024502 31 0 0.0 0.0 0.00 0.00 0.00 62 1014.1
20260902024001 31 0 0.0 0.0 0.00 0.00 0.00 61 1014.0
20260902023002 32 0 0.0 0.0 0.00 0.00 0.00 61 1013.9
20260902022502 32 182 0.0 3.2 0.00 0.00 0.00 60 1013.8
20260902022002 32 176 0.0 3.2 0.00 0.00 0.00 60 1013.7
20260902021501 32 187 0.0 4.8 0.00 0.00 0.00 60 1013.6
20260902021002 32 168 0.0 4.8 0.00 0.00 0.00 59 1013.6
20260902015501 33 159 1.6 11.3 0.00 0.00 0.00 59 1013.4
20260902015001 33 103 0.0 3.2 0.00 0.00 0.00 59 1013.3
20260902014501 33 103 0.0 3.2 0.00 0.00 0.00 58 1013.3
20260902013501 33 85 0.0 3.2 0.00 0.00 0.00 57 1013.2
20260902012001 33 99 0.0 6.4 0.00 0.00 0.00 57 1013.1
20260902011502 33 117 0.0 6.4 0.00 0.00 0.00 57 1013.0
20260902010501 33 113 0.0 3.2 0.00 0.00 0.00 58 1012.9
20260902010001 33 111 0.0 3.2 0.00 0.00 0.00 59 1012.9
20260902005501 33 80 0.0 4.8 0.00 0.00 0.00 58 1013.0
20260902005002 33 66 0.0 4.8 0.00 0.00 0.00 58 1013.0
20260902004502 33 90 0.0 1.6 0.00 0.00 0.00 58 1013.1
20260902004002 34 0 0.0 0.0 0.00 0.00 0.00 56 1012.8
20260902003501 34 0 0.0 0.0 0.00 0.00 0.00 55 1012.9
20260902003001 34 0 0.0 0.0 0.00 0.00 0.00 54 1012.9
20260902002502 35 0 0.0 0.0 0.00 0.00 0.00 54 1013.0
20260902002002 35 0 0.0 0.0 0.00 0.00 0.00 54 1012.9
20260902001502 35 0 0.0 0.0 0.00 0.00 0.00 54 1012.9
20260902001002 35 0 0.0 0.0 0.00 0.00 0.00 53 1013.0
20260902000502 35 0 0.0 0.0 0.00 0.00 0.00 54 1013.1
20260902000002 35 0 0.0 0.0 0.00 0.00 0.00 53 1013.1
20260901235002 36 153 0.0 3.2 0.00 0.00 0.00 52 1013.1
20260901234502 36 0 0.0 0.0 0.00 0.00 0.00 52 1013.2
20260901234001 36 0 0.0 0.0 0.00 0.00 0.00 52 1013.3
20260901233002 36 45 0.0 4.8 0.00 0.00 0.00 51 1013.4
20260901232502 36 78 0.0 4.8 0.00 0.00 0.00 51 1013.4
20260901232001 36 103 0.0 6.4 0.00 0.00 0.00 51 1013.4
20260901231502 36 113 0.0 6.4 0.00 0.00 0.00 52 1013.4
20260901231001 36 126 0.0 3.2 0.00 0.00 0.00 53 1013.4
20260901230502 36 125 0.0 3.2 0.00 0.00 0.00 52 1013.4
20260901230002 36 115 0.0 4.8 0.00 0.00 0.00 52 1013.5
20260901225502 36 110 0.0 4.8 0.00 0.00 0.00 51 1013.4
20260901225002 36 108 0.0 3.2 0.00 0.00 0.00 50 1013.5
20260901224502 36 114 0.0 3.2 0.00 0.00 0.00 51 1013.4
20260901224002 36 135 0.0 1.6 0.00 0.00 0.00 49 1013.4
20260901223502 36 166 0.0 1.6 0.00 0.00 0.00 50 1013.5
20260901223002 36 151 0.0 1.6 0.00 0.00 0.00 50 1013.5
20260901222501 36 156 0.0 3.2 0.00 0.00 0.00 49 1013.5
20260901222002 37 151 0.0 3.2 0.00 0.00 0.00 49 1013.5
20260901221502 37 136 0.0 3.2 0.00 0.00 0.00 48 1013.6
20260901221001 37 127 0.0 3.2 0.00 0.00 0.00 50 1013.6
20260901220502 36 123 0.0 3.2 0.00 0.00 0.00 50 1013.6
20260901220001 36 110 0.0 3.2 0.00 0.00 0.00 50 1013.6
20260901215502 36 96 0.0 1.6 0.00 0.00 0.00 50 1013.7
20260901215001 36 95 0.0 1.6 0.00 0.00 0.00 50 1013.7
20260901214502 36 92 0.0 3.2 0.00 0.00 0.00 50 1013.8
20260901213502 36 126 0.0 4.8 0.00 0.00 0.00 49 1013.8
20260901213002 36 158 0.0 4.8 0.00 0.00 0.00 48 1013.8
20260901212502 37 114 0.0 1.6 0.00 0.00 0.00 48 1013.9
20260901212002 37 162 0.0 6.4 0.00 0.00 0.00 47 1014.0
20260901211502 37 168 1.6 6.4 0.00 0.00 0.00 47 1014.0
20260901211001 38 189 1.6 6.4 0.00 0.00 0.00 46 1014.0
20260901210502 38 225 1.6 6.4 0.00 0.00 0.00 45 1014.1
20260901210002 38 321 0.0 4.8 0.00 0.00 0.00 46 1014.1
20260901205502 39 121 0.0 4.8 0.00 0.00 0.00 45 1014.1
20260901205002 39 129 1.6 4.8 0.00 0.00 0.00 45 1014.1
20260901204502 38 131 0.0 6.4 0.00 0.00 0.00 46 1014.3
20260901204002 38 148 1.6 6.4 0.00 0.00 0.00 46 1014.2
20260901203502 38 232 1.6 4.8 0.00 0.00 0.00 47 1014.2
20260901203001 37 277 1.6 4.8 0.00 0.00 0.00 47 1014.3
20260901202502 38 48 1.6 4.8 0.00 0.00 0.00 46 1014.3
20260901202002 38 100 0.0 4.8 0.00 0.00 0.00 47 1014.4
20260901201502 38 119 0.0 3.2 0.00 0.00 0.00 46 1014.4
20260901201002 38 156 1.6 6.4 0.00 0.00 0.00 47 1014.5
20260901200002 38 160 1.6 6.4 0.00 0.00 0.00 47 1014.6
20260901195002 38 233 0.0 4.8 0.00 0.00 0.00 48 1014.7
20260901194002 38 94 1.6 4.8 0.00 0.00 0.00 48 1014.9
20260901193502 37 98 1.6 6.4 0.00 0.00 0.00 49 1014.9
20260901193002 37 101 1.6 6.4 0.00 0.00 0.00 49 1014.9
20260901192502 37 97 1.6 6.4 0.00 0.00 0.00 49 1015.1
20260901192002 37 89 1.6 6.4 0.00 0.00 0.00 49 1015.2
20260901191502 37 338 1.6 6.4 0.00 0.00 0.00 50 1015.2
20260901191002 37 310 0.0 3.2 0.00 0.00 0.00 49 1015.4
20260901190502 38 127 1.6 4.8 0.00 0.00 0.00 48 1015.4
20260901190003 37 135 1.6 6.4 0.00 0.00 0.00 49 1015.6
20260901185502 38 127 1.6 8.0 0.00 0.00 0.00 48 1015.6
20260901185002 38 116 1.6 8.0 0.00 0.00 0.00 48 1015.7
20260901184502 38 126 1.6 4.8 0.00 0.00 0.00 49 1015.8
20260901184003 38 152 1.6 8.0 0.00 0.00 0.00 49 1015.9
20260901183502 37 130 1.6 8.0 0.00 0.00 0.00 49 1016.0
20260901183002 37 89 1.6 8.0 0.00 0.00 0.00 50 1016.1
20260901182503 37 103 1.6 4.8 0.00 0.00 0.00 49 1016.1
20260901182002 37 119 1.6 4.8 0.00 0.00 0.00 50 1016.2
20260901181502 37 102 1.6 4.8 0.00 0.00 0.00 50 1016.3
20260901181002 37 68 1.6 4.8 0.00 0.00 0.00 51 1016.4
20260901180502 37 70 1.6 3.2 0.00 0.00 0.00 50 1016.6
20260901180002 37 82 0.0 4.8 0.00 0.00 0.00 52 1016.6
20260901175503 37 92 1.6 4.8 0.00 0.00 0.00 52 1016.6
20260901175002 37 113 1.6 4.8 0.00 0.00 0.00 52 1016.7
20260901174502 36 86 1.6 6.4 0.00 0.00 0.00 52 1016.8
20260901173502 36 93 1.6 6.4 0.00 0.00 0.00 52 1016.9
20260901173003 37 108 0.0 6.4 0.00 0.00 0.00 52 1017.0
20260901172503 36 117 0.0 1.6 0.00 0.00 0.00 54 1017.1
20260901172002 36 333 0.0 3.2 0.00 0.00 0.00 56 1017.0
20260901171502 36 75 1.6 4.8 0.00 0.00 0.00 56 1017.0
20260901170502 36 76 0.0 4.8 0.00 0.00 0.00 56 1017.2
20260901165503 36 106 0.0 1.6 0.00 0.00 0.00 56 1017.3
20260901163502 35 108 0.0 3.2 0.00 0.00 0.00 59 1017.4
20260901162502 34 131 1.6 6.4 0.00 0.00 0.00 60 1017.4
20260901162003 34 125 1.6 6.4 0.00 0.00 0.00 63 1017.4
20260901161502 34 131 1.6 4.8 0.00 0.00 0.00 62 1017.4
20260901161002 34 140 0.0 3.2 0.00 0.00 0.00 61 1017.5
20260901160502 34 121 0.0 6.4 0.00 0.00 0.00 62 1017.4
20260901160003 33 126 1.6 6.4 0.00 0.00 0.00 63 1017.4
20260901155502 33 136 1.6 6.4 0.00 0.00 0.00 63 1017.3
20260901155003 34 138 1.6 6.4 0.00 0.00 0.00 63 1017.3
20260901154003 33 281 1.6 3.2 0.00 0.00 0.00 62 1017.4
20260901153503 33 270 1.6 6.4 0.00 0.00 0.00 63 1017.4
20260901153003 33 251 0.0 6.4 0.00 0.00 0.00 61 1017.4
20260901152502 33 239 0.0 8.0 0.00 0.00 0.00 62 1017.3
20260901152003 33 241 0.0 8.0 0.00 0.00 0.00 63 1017.3
20260901151503 33 159 0.0 4.8 0.00 0.00 0.00 65 1017.3
20260901151002 32 297 1.6 4.8 0.00 0.00 0.00 64 1017.5
20260901150502 32 310 0.0 4.8 0.00 0.00 0.00 67 1017.4
20260901150002 32 179 0.0 1.6 0.00 0.00 0.00 65 1017.4
20260901145002 32 200 0.0 3.2 0.00 0.00 0.00 68 1017.5
20260901144502 32 190 0.0 3.2 0.00 0.00 0.00 68 1017.6
20260901144002 31 136 0.0 3.2 0.00 0.00 0.00 69 1017.6
20260901143503 31 108 0.0 3.2 0.00 0.00 0.00 70 1017.7
20260901143002 31 152 0.0 3.2 0.00 0.00 0.00 70 1017.7
20260901142502 31 168 1.6 6.4 0.00 0.00 0.00 70 1017.8
20260901142003 31 177 1.6 6.4 0.00 0.00 0.00 70 1017.7
20260901141502 31 184 0.0 3.2 0.00 0.00 0.00 70 1017.6
20260901141003 30 168 0.0 1.6 0.00 0.00 0.00 71 1017.6
20260901140503 30 174 0.0 1.6 0.00 0.00 0.00 73 1017.5
20260901140003 30 175 0.0 1.6 0.00 0.00 0.00 73 1017.5
20260901135502 28 181 0.0 1.6 0.00 0.00 0.00 75 1017.7
20260901135002 28 181 0.0 1.6 0.00 0.00 0.00 76 1017.6
20260901134503 28 0 0.0 0.0 0.00 0.00 0.00 77 1017.7
20260901133503 27 0 0.0 0.0 0.00 0.00 0.00 79 1017.7
20260901133003 26 0 0.0 0.0 0.00 0.00 0.00 80 1017.6
20260901132502 26 0 0.0 0.0 0.00 0.00 0.00 80 1017.6
20260901132003 26 0 0.0 0.0 0.00 0.00 0.00 80 1017.5
20260901131502 26 0 0.0 0.0 0.00 0.00 0.00 81 1017.5
20260901131003 26 0 0.0 0.0 0.00 0.00 0.00 81 1017.5
20260901130503 26 0 0.0 0.0 0.00 0.00 0.00 81 1017.4
20260901130003 26 0 0.0 0.0 0.00 0.00 0.00 82 1017.4
20260901125503 25 0 0.0 0.0 0.00 0.00 0.00 82 1017.3
20260901125002 25 0 0.0 0.0 0.00 0.00 0.00 82 1017.3
20260901124503 25 139 0.0 1.6 0.00 0.00 0.00 83 1017.1
20260901124002 25 152 0.0 3.2 0.00 0.00 0.00 83 1017.1
20260901123502 25 155 0.0 3.2 0.00 0.00 0.00 83 1017.1
20260901123003 25 163 0.0 1.6 0.00 0.00 0.00 83 1017.0
20260901122503 25 0 0.0 0.0 0.00 0.00 0.00 82 1016.9
20260901122003 25 0 0.0 0.0 0.00 0.00 0.00 82 1016.9
20260901121503 25 0 0.0 0.0 0.00 0.00 0.00 82 1016.8
20260901121003 25 0 0.0 0.0 0.00 0.00 0.00 82 1016.8
20260901120003 25 0 0.0 0.0 0.00 0.00 0.00 81 1016.5
20260901115502 25 0 0.0 0.0 0.00 0.00 0.00 81 1016.5
20260901115003 25 0 0.0 0.0 0.00 0.00 0.00 80 1016.4
20260901114503 25 0 0.0 0.0 0.00 0.00 0.00 80 1016.4
20260901114003 25 0 0.0 0.0 0.00 0.00 0.00 80 1016.3
20260901113503 25 0 0.0 0.0 0.00 0.00 0.00 79 1016.3
20260901113003 25 0 0.0 0.0 0.00 0.00 0.00 80 1016.3
20260901112503 26 154 0.0 1.6 0.00 0.00 0.00 79 1016.3
20260901112003 26 154 0.0 1.6 0.00 0.00 0.00 79 1016.3
20260901111502 26 173 0.0 1.6 0.00 0.00 0.00 79 1016.3
20260901110503 26 173 0.0 1.6 0.00 0.00 0.00 78 1016.2
20260901110003 26 0 0.0 0.0 0.00 0.00 0.00 78 1016.2
20260901105503 26 0 0.0 0.0 0.00 0.00 0.00 78 1016.2
20260901105003 26 0 0.0 0.0 0.00 0.00 0.00 78 1016.2
20260901104503 26 0 0.0 0.0 0.00 0.00 0.00 77 1016.2
20260901103503 26 0 0.0 0.0 0.00 0.00 0.00 77 1016.2
20260901103002 26 173 0.0 1.6 0.00 0.00 0.00 76 1016.2
20260901102503 26 173 0.0 1.6 0.00 0.00 0.00 76 1016.2
20260901102003 26 0 0.0 0.0 0.00 0.00 0.00 76 1016.2
20260901101003 26 173 0.0 1.6 0.00 0.00 0.00 76 1016.3
20260901100503 26 173 0.0 1.6 0.00 0.00 0.00 75 1016.2
20260901100003 26 173 0.0 1.6 0.00 0.00 0.00 75 1016.3
20260901095503 26 173 0.0 1.6 0.00 0.00 0.00 75 1016.3
20260901095003 26 173 0.0 1.6 0.00 0.00 0.00 75 1016.2
20260901094503 26 0 0.0 0.0 0.00 0.00 0.00 74 1016.4
20260901094003 26 0 0.0 0.0 0.00 0.00 0.00 74 1016.4
20260901093504 26 173 0.0 1.6 0.00 0.00 0.00 74 1016.4
20260901093004 26 173 0.0 1.6 0.00 0.00 0.00 74 1016.4
20260901092003 26 173 0.0 1.6 0.00 0.00 0.00 73 1016.3
20260901091004 27 0 0.0 0.0 0.00 0.00 0.00 72 1016.3
20260901090503 27 159 0.0 3.2 0.00 0.00 0.00 72 1016.2
20260901090004 27 155 0.0 3.2 0.00 0.00 0.00 71 1016.2
20260901085503 27 170 0.0 1.6 0.00 0.00 0.00 71 1016.1
20260901085003 27 184 0.0 1.6 0.00 0.00 0.00 71 1016.1
20260901084503 27 192 0.0 3.2 0.00 0.00 0.00 71 1016.1
20260901084004 27 183 0.0 3.2 0.00 0.00 0.00 70 1016.1
20260901083503 27 139 0.0 1.6 0.00 0.00 0.00 70 1016.0
20260901083003 27 145 0.0 1.6 0.00 0.00 0.00 70 1016.0
20260901082503 27 161 0.0 3.2 0.00 0.00 0.00 69 1016.0
20260901081503 27 0 0.0 0.0 0.00 0.00 0.00 69 1016.0
20260901081003 27 165 0.0 1.6 0.00 0.00 0.00 68 1016.0
20260901080004 28 193 0.0 4.8 0.00 0.00 0.00 67 1015.9
20260901075003 28 181 0.0 3.2 0.00 0.00 0.00 67 1015.9
20260901074503 28 175 0.0 4.8 0.00 0.00 0.00 67 1015.9
20260901074004 28 176 0.0 4.8 0.00 0.00 0.00 67 1015.9
20260901073503 28 178 0.0 3.2 0.00 0.00 0.00 67 1015.9
20260901073004 28 178 0.0 3.2 0.00 0.00 0.00 67 1016.1
20260901072503 28 176 0.0 3.2 0.00 0.00 0.00 67 1016.0
20260901072003 28 167 0.0 3.2 0.00 0.00 0.00 67 1015.9
20260901071504 28 168 0.0 3.2 0.00 0.00 0.00 67 1015.9
20260901071003 28 173 0.0 4.8 0.00 0.00 0.00 66 1015.9
20260901070503 28 167 0.0 4.8 0.00 0.00 0.00 66 1015.9
20260901065503 28 156 0.0 1.6 0.00 0.00 0.00 66 1015.9
20260901065003 28 154 0.0 3.2 0.00 0.00 0.00 66 1015.9
20260901063503 28 159 0.0 3.2 0.00 0.00 0.00 65 1015.8
20260901063003 29 155 0.0 3.2 0.00 0.00 0.00 65 1015.8
20260901062504 29 151 0.0 3.2 0.00 0.00 0.00 65 1015.8
20260901062004 29 158 0.0 3.2 0.00 0.00 0.00 64 1015.7
20260901061503 29 158 0.0 4.8 0.00 0.00 0.00 64 1015.7
20260901061004 29 159 0.0 4.8 0.00 0.00 0.00 65 1015.6
20260901060503 29 152 0.0 1.6 0.00 0.00 0.00 65 1015.6
20260901060003 29 137 0.0 1.6 0.00 0.00 0.00 65 1015.5
20260901055003 30 147 0.0 4.8 0.00 0.00 0.00 64 1015.4
20260901054504 29 155 0.0 4.8 0.00 0.00 0.00 64 1015.4
20260901053504 30 175 0.0 4.8 0.00 0.00 0.00 65 1015.4
20260901053003 30 148 0.0 4.8 0.00 0.00 0.00 66 1015.2
20260901052503 30 148 0.0 4.8 0.00 0.00 0.00 66 1015.3
20260901052001 30 169 0.0 3.2 0.00 0.00 0.00 65 1015.3
20260901051501 30 153 0.0 3.2 0.00 0.00 0.00 64 1015.3
20260901050501 30 136 0.0 3.2 0.00 0.00 0.00 63 1015.0
20260901050002 29 149 0.0 3.2 0.00 0.00 0.00 63 1015.1
20260901045501 29 146 0.0 3.2 0.00 0.00 0.00 63 1015.0
20260901044501 29 97 0.0 1.6 0.00 0.00 0.00 64 1014.9
20260901044001 29 97 0.0 1.6 0.00 0.00 0.00 64 1014.9
20260901043001 29 0 0.0 0.0 0.00 0.00 0.00 64 1014.9
20260901042501 29 0 0.0 0.0 0.00 0.00 0.00 64 1014.9
20260901042001 29 0 0.0 0.0 0.00 0.00 0.00 65 1014.8
20260901041502 29 124 0.0 3.2 0.00 0.00 0.00 65 1014.9
20260901041002 29 125 0.0 3.2 0.00 0.00 0.00 65 1015.0
20260901040502 29 142 0.0 1.6 0.00 0.00 0.00 66 1015.0
20260901040001 29 0 0.0 0.0 0.00 0.00 0.00 60 1014.8
20260901035501 30 0 0.0 0.0 0.00 0.00 0.00 58 1014.7
20260901035001 30 0 0.0 0.0 0.00 0.00 0.00 58 1014.8
20260901034501 30 0 0.0 0.0 0.00 0.00 0.00 57 1014.8
20260901033501 30 0 0.0 0.0 0.00 0.00 0.00 56 1014.7
20260901033001 30 0 0.0 0.0 0.00 0.00 0.00 56 1014.8